This is the latest recevied weather packets stored in our database for station/object IA5FYI-13. If no packets are shown the sender has not sent any weather packets the latest 10 day(s).
| Time | Temp. | Humidity | Pressure | Rain* | Wind** | Luminosity | Snow |
|---|---|---|---|---|---|---|---|
| 1778048709 | 17.22° C | 88% | 1008.5 hPa | 0 mm | - | - | - |
| 1778048413 | 17.22° C | 88% | 1008.8 hPa | 0 mm | - | - | - |
| 1778048113 | 17.22° C | 88% | 1008.5 hPa | 0 mm | - | - | - |
| 1778047815 | 17.22° C | 88% | 1008.8 hPa | 0 mm | - | - | - |
| 1778047510 | 17.22° C | 88% | 1008.5 hPa | 0 mm | - | - | - |
| 1778047235 | 17.22° C | 88% | 1008.8 hPa | 4.83 mm | - | - | - |
| 1778046909 | 17.22° C | 89% | 1008.8 hPa | 4.83 mm | - | - | - |
| 1778046613 | 17.22° C | 89% | 1008.5 hPa | 4.83 mm | - | - | - |
| 1778046313 | 17.78° C | 89% | 1008.5 hPa | 4.57 mm | - | - | - |
| 1778046013 | 17.78° C | 89% | 1008.1 hPa | 4.57 mm | - | - | - |
| 1778045709 | 17.78° C | 89% | 1008.1 hPa | 4.57 mm | - | - | - |
| 1778045422 | 17.22° C | 89% | 1008.1 hPa | 4.57 mm | - | - | - |
| 1778045110 | 17.22° C | 89% | 1008.1 hPa | 3.81 mm | - | - | - |
| 1778044813 | 17.22° C | 89% | 1008.1 hPa | 3.81 mm | - | - | - |
| 1778044513 | 17.22° C | 89% | 1008.5 hPa | 3.3 mm | - | - | - |
| 1778044214 | 17.22° C | 89% | 1008.1 hPa | 1.52 mm | - | - | - |
| 1778043909 | 17.22° C | 89% | 1008.1 hPa | 0.76 mm | - | - | - |
| 1778043632 | 17.22° C | 89% | 1008.1 hPa | 30.48 mm | - | - | - |
| 1778043309 | 17.22° C | 89% | 1008.1 hPa | 26.42 mm | - | - | - |
| 1778043013 | 17.22° C | 88% | 1008.1 hPa | 26.42 mm | - | - | - |
| 1778042713 | 17.22° C | 89% | 1008.5 hPa | 26.42 mm | - | - | - |
| 1778042414 | 17.22° C | 89% | 1008.1 hPa | 25.65 mm | - | - | - |
| 1778042110 | 17.22° C | 88% | 1008.1 hPa | 21.08 mm | - | - | - |
| 1778041824 | 17.22° C | 89% | 1008.1 hPa | 18.03 mm | - | - | - |
| 1778041510 | 17.22° C | 89% | 1007.8 hPa | 16 mm | - | - | - |
* Rain latest hour (hover to see other rain measurements)
** Current wind speed in m/s (hover to see current wind gust speed)